• In Germany
  • List of Countries
  • For 7 days
  • Water Temperature
  • Satellite Maps
  • Weather Map
  • Weather Widgets
  • user-avatar
    Login

    Hourly Weather Korçe

    Today, 29 May, Monday

    Time Temperature Precipitation Wind Pressure Humidity
    00:00 +8°C° 0 mm 1 mps 668 mmHg 88%
    01:00 +7°C° 0 mm 2 mps 668 mmHg 89%
    02:00 +7°C° 0 mm 2 mps 667 mmHg 89%
    03:00 +7°C° 0 mm 2 mps 667 mmHg 89%
    04:00 +6°C° 0 mm 2 mps 667 mmHg 89%
    05:00 +9°C° 0 mm 1 mps 668 mmHg 83%
    06:00 +11°C° 0 mm 1 mps 668 mmHg 77%
    07:00 +14°C° 0 mm 2 mps 669 mmHg 69%
    08:00 +15°C° 0 mm 2 mps 669 mmHg 62%
    09:00 +18°C° 0 mm 1 mps 669 mmHg 56%
    10:00 +20°C° 0 mm 1 mps 670 mmHg 49%
    11:00 +20°C° 0.4 mm 1 mps 670 mmHg 50%
    12:00 +19°C° 0.4 mm 2 mps 670 mmHg 52%
    13:00 +19°C° 0 mm 2 mps 669 mmHg 54%
    14:00 +18°C° 0.5 mm 2 mps 669 mmHg 56%
    15:00 +18°C° 0.5 mm 2 mps 669 mmHg 59%
    16:00 +18°C° 0.5 mm 1 mps 669 mmHg 61%
    17:00 +15°C° 0.3 mm 1 mps 668 mmHg 69%
    18:00 +13°C° 0.3 mm 1 mps 667 mmHg 77%
    19:00 +10°C° 0.3 mm 1 mps 666 mmHg 86%
    20:00 +10°C° 0.2 mm 1 mps 666 mmHg 86%
    21:00 +9°C° 0.2 mm 1 mps 666 mmHg 87%
    22:00 +8°C° 0.2 mm 1 mps 666 mmHg 88%
    23:00 +7°C° 0.1 mm 0 mps 666 mmHg 88%

    Tomorrow, 30 May, Tuesday

    Time Temperature Precipitation Wind Pressure Humidity
    00:00 +7°C° 0.1 mm 0 mps 666 mmHg 88%
    01:00 +6°C° 0.1 mm 0 mps 666 mmHg 89%
    02:00 +6°C° 0 mm 0 mps 666 mmHg 89%
    03:00 +6°C° 0 mm 0 mps 666 mmHg 89%
    04:00 +6°C° 0 mm 0 mps 666 mmHg 89%
    05:00 +9°C° 0 mm 0 mps 667 mmHg 82%
    06:00 +11°C° 0 mm 0 mps 668 mmHg 75%
    07:00 +14°C° 0 mm 0 mps 669 mmHg 68%
    08:00 +16°C° 0.2 mm 0 mps 669 mmHg 64%
    09:00 +19°C° 0.2 mm 1 mps 670 mmHg 59%
    10:00 +20°C° 0.2 mm 1 mps 670 mmHg 55%
    11:00 +20°C° 0.6 mm 1 mps 670 mmHg 56%
    12:00 +19°C° 0.6 mm 2 mps 670 mmHg 57%
    13:00 +19°C° 0.6 mm 2 mps 670 mmHg 58%
    14:00 +19°C° 0.4 mm 2 mps 670 mmHg 59%
    15:00 +19°C° 0.4 mm 2 mps 670 mmHg 61%
    16:00 +18°C° 0.4 mm 2 mps 669 mmHg 62%
    17:00 +16°C° 0.1 mm 2 mps 669 mmHg 69%
    18:00 +14°C° 0.1 mm 1 mps 669 mmHg 77%
    19:00 +12°C° 0.1 mm 1 mps 668 mmHg 84%
    20:00 +11°C° 0 mm 1 mps 668 mmHg 85%
    21:00 +10°C° 0 mm 1 mps 668 mmHg 85%
    22:00 +9°C° 0 mm 1 mps 668 mmHg 86%
    23:00 +8°C° 0 mm 1 mps 668 mmHg 86%

    Day after tomorrow, 31 May, Wednesday

    Time Temperature Precipitation Wind Pressure Humidity
    00:00 +7°C° 0 mm 0 mps 668 mmHg 86%
    01:00 +7°C° 0 mm 0 mps 668 mmHg 86%
    02:00 +7°C° 0 mm 1 mps 668 mmHg 85%
    03:00 +7°C° 0 mm 1 mps 668 mmHg 85%
    04:00 +7°C° 0 mm 1 mps 668 mmHg 85%
    05:00 +10°C° 0 mm 1 mps 668 mmHg 76%
    06:00 +13°C° 0 mm 1 mps 669 mmHg 67%
    07:00 +15°C° 0 mm 1 mps 670 mmHg 58%
    08:00 +18°C° 0 mm 1 mps 671 mmHg 53%
    09:00 +20°C° 0 mm 1 mps 671 mmHg 48%
    10:00 +20°C° 0 mm 2 mps 672 mmHg 43%
    11:00 +21°C° 0 mm 2 mps 672 mmHg 42%
    12:00 +23°C° 0 mm 2 mps 672 mmHg 41%
    13:00 +23°C° 0 mm 2 mps 672 mmHg 40%
    14:00 +23°C° 0 mm 2 mps 671 mmHg 43%
    15:00 +21°C° 0 mm 3 mps 671 mmHg 46%
    16:00 +21°C° 0 mm 3 mps 671 mmHg 48%
    17:00 +18°C° 0 mm 2 mps 670 mmHg 60%
    18:00 +16°C° 0 mm 2 mps 670 mmHg 72%
    19:00 +13°C° 0 mm 1 mps 669 mmHg 83%
    20:00 +12°C° 0 mm 1 mps 669 mmHg 85%
    21:00 +11°C° 0 mm 1 mps 669 mmHg 86%
    22:00 +10°C° 0 mm 1 mps 669 mmHg 88%
    23:00 +10°C° 0 mm 1 mps 668 mmHg 87%

    1 June, Thursday

    Time Temperature Precipitation Wind Pressure Humidity
    00:00 +9°C° 0 mm 1 mps 668 mmHg 87%
    01:00 +9°C° 0 mm 1 mps 668 mmHg 86%
    02:00 +9°C° 0 mm 1 mps 668 mmHg 85%
    03:00 +9°C° 0 mm 1 mps 668 mmHg 83%
    04:00 +9°C° 0 mm 1 mps 668 mmHg 82%
    05:00 +12°C° 0 mm 1 mps 669 mmHg 72%
    06:00 +14°C° 0 mm 1 mps 669 mmHg 63%
    07:00 +18°C° 0 mm 1 mps 670 mmHg 54%
    08:00 +20°C° 0 mm 1 mps 671 mmHg 49%
    09:00 +22°C° 0 mm 1 mps 671 mmHg 43%
    10:00 +24°C° 0 mm 1 mps 672 mmHg 38%
    11:00 +25°C° 0 mm 1 mps 672 mmHg 38%
    12:00 +25°C° 0 mm 2 mps 672 mmHg 37%
    13:00 +26°C° 0 mm 2 mps 672 mmHg 37%
    14:00 +25°C° 0 mm 2 mps 671 mmHg 40%
    15:00 +24°C° 0 mm 2 mps 671 mmHg 43%
    16:00 +24°C° 0 mm 3 mps 671 mmHg 46%
    17:00 +20°C° 0 mm 2 mps 670 mmHg 57%
    18:00 +17°C° 0 mm 2 mps 669 mmHg 69%
    19:00 +14°C° 0 mm 1 mps 669 mmHg 80%
    20:00 +13°C° 0 mm 1 mps 669 mmHg 82%
    21:00 +12°C° 0 mm 1 mps 668 mmHg 83%
    22:00 +11°C° 0 mm 1 mps 668 mmHg 85%
    23:00 +11°C° 0 mm 1 mps 668 mmHg 85%

    2 June, Friday

    Time Temperature Precipitation Wind Pressure Humidity
    00:00 +11°C° 0 mm 1 mps 668 mmHg 84%
    01:00 +10°C° 0 mm 1 mps 668 mmHg 84%
    02:00 +10°C° 0 mm 1 mps 668 mmHg 84%
    03:00 +10°C° 0 mm 1 mps 667 mmHg 83%
    04:00 +10°C° 0 mm 1 mps 667 mmHg 83%
    05:00 +13°C° 0 mm 1 mps 668 mmHg 73%
    06:00 +16°C° 0 mm 1 mps 669 mmHg 64%
    07:00 +20°C° 0 mm 1 mps 670 mmHg 55%
    08:00 +22°C° 0 mm 1 mps 671 mmHg 51%
    09:00 +24°C° 0 mm 1 mps 671 mmHg 46%
    10:00 +26°C° 0 mm 1 mps 672 mmHg 42%
    11:00 +26°C° 0.3 mm 1 mps 671 mmHg 42%
    12:00 +26°C° 0.3 mm 2 mps 671 mmHg 42%
    13:00 +26°C° 0.3 mm 2 mps 671 mmHg 43%
    14:00 +26°C° 0.3 mm 2 mps 671 mmHg 46%
    15:00 +25°C° 0.3 mm 2 mps 670 mmHg 49%
    16:00 +24°C° 0.3 mm 2 mps 670 mmHg 52%
    17:00 +21°C° 0.3 mm 2 mps 669 mmHg 62%
    18:00 +19°C° 0.3 mm 1 mps 669 mmHg 73%
    19:00 +15°C° 0.3 mm 1 mps 668 mmHg 84%
    20:00 +14°C° 0.2 mm 1 mps 668 mmHg 86%
    21:00 +13°C° 0.2 mm 1 mps 668 mmHg 87%
    22:00 +12°C° 0.2 mm 0 mps 668 mmHg 89%
    23:00 +11°C° 0.2 mm 0 mps 667 mmHg 90%

    3 June, Saturday

    Time Temperature Precipitation Wind Pressure Humidity
    00:00 +11°C° 0.2 mm 0 mps 667 mmHg 90%
    01:00 +10°C° 0.2 mm 0 mps 666 mmHg 90%
    02:00 +10°C° 0.1 mm 0 mps 666 mmHg 90%
    03:00 +10°C° 0.1 mm 0 mps 666 mmHg 90%
    04:00 +10°C° 0.1 mm 0 mps 666 mmHg 91%
    05:00 +12°C° 0 mm 0 mps 667 mmHg 83%
    06:00 +15°C° 0 mm 0 mps 668 mmHg 75%
    07:00 +18°C° 0 mm 0 mps 669 mmHg 67%
    08:00 +19°C° 0.4 mm 0 mps 669 mmHg 63%
    09:00 +23°C° 0.4 mm 1 mps 669 mmHg 58%
    10:00 +24°C° 0.4 mm 1 mps 670 mmHg 53%
    11:00 +24°C° 0.5 mm 1 mps 669 mmHg 52%
    12:00 +24°C° 0.5 mm 2 mps 669 mmHg 50%
    13:00 +25°C° 0.5 mm 2 mps 669 mmHg 49%
    14:00 +24°C° 0.6 mm 2 mps 669 mmHg 52%
    15:00 +24°C° 0.6 mm 2 mps 668 mmHg 54%
    16:00 +23°C° 0.6 mm 2 mps 668 mmHg 57%
    17:00 +20°C° 0.3 mm 2 mps 668 mmHg 66%
    18:00 +18°C° 0.3 mm 1 mps 667 mmHg 75%
    19:00 +15°C° 0.3 mm 1 mps 667 mmHg 83%
    20:00 +14°C° 0.3 mm 1 mps 667 mmHg 85%
    21:00 +13°C° 0.3 mm 1 mps 667 mmHg 87%
    22:00 +12°C° 0.3 mm 1 mps 666 mmHg 88%
    23:00 +12°C° 0.3 mm 1 mps 666 mmHg 88%
    Show more